Location: Le Pont-de-Coulogne
(50.9242°N, 1.8700°E)
Time: 07:50:23
(UTC+00:00)

Cosmos 2322 Rocket - Pass Details

Date: 15 May 2026
Orbit: 831 x 850 km, 71.0° (Epoch: 6 June)

Event Time Altitude Azimuth Distance (km) Brightness Sun altitude
Rises 22:16:47 0° 324° (NW) 3,408 6.9 -17.2°
Reaches altitude 10° 22:19:28 10° 314° (NW) 2,472 5.7 -17.3°
Maximum altitude 22:24:20 30° 255° (WSW) 1,463 3.5 -17.6°
Enters shadow 22:27:37 18° 206° (SSW) 1,983 3.7 -17.8°
